{"data":{"norad_id":53605,"intl_designator":"2022-104T","name":"STARLINK-4693","alt_names":[],"object_type":"PAYLOAD","status":"ACTIVE","operator":null,"country":"US","launch_date":"2022-08-28","launch_site_code":"AFETR","launch_vehicle":null,"mission":null,"orbit_class":"UNKNOWN","rcs_meters":null,"size_class":null,"mass_kg":null,"dimensions":null,"purposes":["comms"],"wikipedia_slug":null,"has_3d_model":false,"image_url":null,"decayed_at":null,"tle_current":{"epoch":"2026-07-04T00:26:41.631360Z","epoch_age_seconds":6859868,"freshness":"OLD","line1":"1 53605U 22104T   26185.01853740  .13516996  12670-4  12351-3 0  9993","line2":"2 53605  53.1990  38.4686 0009137 276.6795  83.3218 16.50918675213789","mean_motion":16.50918675,"eccentricity":0.0009137,"inclination_deg":53.199,"raan_deg":38.4686,"arg_perigee_deg":276.6795,"mean_anomaly_deg":83.3218,"bstar":0.00012351,"rev_number":21378,"period_min":87.224163237477,"perigee_km":130.96471643084,"apogee_km":142.87032706388,"semimajor_km":6515.0545217474,"source":"CELESTRAK","updated_at":"2026-07-04T09:00:27.262600Z"}}}